Location: Westminster
(33.3626°N, 96.4619°W)
Time: 05:01:47
(UTC+00:00)

OAO 3 Rocket - Pass Details

Date: 06 July 2022
Orbit: 628 x 681 km, 35.0° (Epoch: 08 August)

Event Time Altitude Azimuth Distance (km) Brightness Sun altitude
Exits shadow 07:58:30 29° 81° (E) 1,238 4.8 -30.2°
Drops below altitude 10° 08:00:56 10° 87° (E) 2,112 6.1 -30.0°
Sets 08:03:20 0° 89° (E) 3,026 6.9 -29.8°
